This demonstration page uses our WeatherBlox Daily Observations layout. Learn more.

Left ArrowRight Arrow

30.21309, -93.2044

Hourly Observations for July 1, 2022

Temp ( °F °C ) Dew Point ( °F °C ) Humidity (%) Winds ( mph kmh ) Pressure ( in mb ) Visibility ( mi km ) Precip ( " mm )
12:15 am 00:15 Partly Cloudy 76 24.4 73 22.6 90 90 ESE 3 6 30.02 1017 10 16 0.00 0.00
12:35 am 00:35 Partly Cloudy 76 24.5 73 22.7 90 90 SE 5 7 30.02 1017 10 16 0.00 0.00
12:55 am 00:55 Partly Cloudy 76 24.7 72 22.3 87 87 SE 7 11 30.02 1017 10 16 0.00 0.00
1:15 am 01:15 Partly Cloudy 76 24.5 72 22.1 87 87 SE 6 9 30.01 1016 10 16 0.00 0.00
1:35 am 01:35 Partly Cloudy 76 24.5 72 22.1 87 87 SE 5 7 30.01 1016 10 16 0.00 0.00
1:55 am 01:55 Mostly Cloudy 76 24.4 71 21.8 85 85 SE 5 7 30.01 1016 10 16 0.00 0.00
2:15 am 02:15 Cloudy 76 24.3 71 21.7 85 85 SE 5 7 30.01 1016 10 16 0.00 0.00
2:35 am 02:35 Cloudy 76 24.3 71 21.7 85 85 SSE 3 6 30.00 1016 10 16 0.00 0.00
2:55 am 02:55 Cloudy with Light Rain 75 24.1 71 21.8 87 87 SE 5 7 30.00 1016 10 16 0.00 0.00
3:15 am 03:15 Mostly Cloudy with Light Rain 75 24 72 22.1 89 89 E 3 6 30.00 1016 10 16 0.00 0.00
3:35 am 03:35 Cloudy with Light Rain 75 24.1 72 22.1 89 89 Calm 30.00 1016 7 11 0.02 0.51
3:55 am 03:55 Cloudy with Light Rain 76 24.4 72 22.3 88 88 Calm 30.00 1016 10 16 0.02 0.51
4:15 am 04:15 Cloudy with Light Rain 72 22.2 69 20.4 90 90 SW 13 20 30.00 1016 7 11 0.06 1.52
4:35 am 04:35 Cloudy with Mist and Fog 72 22.1 69 20.7 92 92 SSW 3 6 29.99 1016 5 8 0.10 2.54
4:55 am 04:55 Cloudy with Rain 72 22.1 69 20.6 91 91 Calm 29.99 1016 5 8 0.13 3.30
5:15 am 05:15 Cloudy with Rain 72 22.2 70 20.9 92 92 SSE 8 13 30.00 1016 4 6 0.06 1.52
5:35 am 05:35 Cloudy with Mist and Fog 72 22.1 70 21 94 94 E 8 13 29.99 1016 2 2 0.31 7.87
6:00 am 06:00 Mostly Cloudy with Light Rain 72 22 70 21 94 94 ENE 8 13 29.99 1016 7 11 0.00 0.00
6:53 am 06:53 Mostly Cloudy 73 23 70 21 89 89 ENE 7 11 30.00 1016 7 11 0.00 0.00
7:55 am 07:55 Cloudy with Light Rain 75 24 72 22 89 89 SE 8 13 30.03 1017 6 10 0.00 0.00
8:47 am 08:47 Cloudy with Light Rain 73 23 72 22 94 94 SSW 6 9 30.05 1018 5 8 0.00 0.00
9:50 am 09:50 Cloudy with Light Rain 73 23 72 22 94 94 SE 14 22 30.03 1017 5 8 0.00 0.00
10:55 am 10:55 Cloudy with Light Rain 73 23 72 22 94 94 SE 14 22 30.03 1017 5 8 0.00 0.00
11:55 am 11:55 Cloudy with Light Rain 73 23 72 22 94 94 ESE 14 22 30.04 1017 5 8 0.00 0.00
12:55 pm 12:55 Cloudy with Light Rain 73 23 72 22 94 94 SSE 6 9 30.03 1017 5 8 0.00 0.00
1:50 pm 13:50 Cloudy with Light Rain 73 23 72 22 94 94 SSE 8 13 30.03 1017 5 8 0.00 0.00
2:18 pm 14:18 Mostly Cloudy with Light Rain 73 23 72 22 94 94 SSE 8 13 30.02 1017 5 8 0.00 0.00
2:46 pm 14:46 Mostly Cloudy with Light Rain 73 23 72 22 94 94 ESE 10 17 30.00 1016 5 8 0.00 0.00
3:45 pm 15:45 Mostly Cloudy 75 24 72 22 89 89 ESE 8 13 29.99 1016 10 16 0.00 0.00
4:55 pm 16:55 Partly Cloudy 75 24 72 22 89 89 ESE 6 9 29.96 1015 10 16 0.00 0.00
5:55 pm 17:55 Partly Cloudy 75 24 73 23 94 94 ESE 8 13 29.96 1015 10 16 0.00 0.00
6:52 pm 18:52 Partly Cloudy 77 25 73 23 89 89 SE 10 17 29.95 1014 10 16 0.00 0.00
7:50 pm 19:50 Partly Cloudy 75 24 72 22 89 89 ESE 7 11 29.94 1014 10 16 0.00 0.00
8:45 pm 20:45 Mostly Clear 75 24 73 23 94 94 SE 7 11 29.95 1014 10 16 0.00 0.00
9:46 pm 21:46 Mostly Clear 75 24 73 23 94 94 SE 7 11 29.96 1015 10 16 0.00 0.00
10:15 pm 22:15 Clear 75 24.1 73 22.8 92 92 SSE 3 6 29.97 1015 10 16 0.00 0.00
10:35 pm 22:35 Clear 75 24 73 22.7 92 92 SE 5 7 29.97 1015 10 16 0.00 0.00
10:55 pm 22:55 Clear 75 23.8 73 22.6 93 93 SE 3 6 29.98 1015 10 16 0.00 0.00
11:15 pm 23:15 Clear 75 23.8 73 22.7 94 94 E 5 7 29.98 1015 10 16 0.00 0.00
11:35 pm 23:35 Clear 75 23.7 73 22.7 94 94 ESE 6 9 29.98 1015 10 16 0.00 0.00
11:55 pm 23:55 Clear 74 23.6 73 22.6 94 94 E 6 9 29.98 1015 10 16 0.00 0.00

Powered by AerisWeather